2018-102B (43832 NORAD) Tracking and Keplerian Element Data

This shows tracking and keplerian element data for the satellite.

Feedback or suggestion? Click here.




ElementValue
Catalog43832
Name2018-102B
Epoch Orbit451
Epoch Day6.15624139
Epoch Year2019
RAAN83.3825
Inclination97.6238
Eccentricity0.0015457
Argument of Perigee164.0944
Mean Anonmoly274.7472
Mean Motion15.08198598
Decay Rate1.347E-05
L11 43832U 18102B 19006.15624139 .00001347 00000-0 91031-4 0 9992
L22 43832 97.6238 83.3825 0015457 164.0944 274.7472 15.08198598 4513

Live tracking and technical data element details for 2018-102B (NORAD 43832). 2018-102B can be tracked NOW for your location showing map with azimuth and elevation plus other details from your city location.

Track the satellite on the map from your city or location and see movement details for azimuth, elevation, latitude, longitude, range, height, and movement on the map or in text.







IsCatalogInMostPopularTable: catalog: 43832, numindb: 23
Update: records affected: 1



GetName: 43832 2018-102B

Hit Count: updated at: Thu, 17 Jan 2019 14:51:25 GMT